STARLINK-1572 (46060 NORAD) Tracking and Keplerian Element Data

This shows tracking and keplerian element data for the satellite.

Feedback or suggestion? Click here.




ElementValue
Catalog46060
NameSTARLINK-1572
Epoch Orbit1885
Epoch Day339.04698871
Epoch Year2020
RAAN103.1832
Inclination53.0346
Eccentricity0.0001157
Argument of Perigee99.5812
Mean Anonmoly260.5308
Mean Motion15.06421366
Decay Rate-7.525E-05
L11 46060U 20055AK 20339.04698871 -.00007525 00000-0 -48652-3 0 9997
L22 46060 53.0346 103.1832 0001157 99.5812 260.5308 15.06421366 18855

Live tracking and technical data element details for STARLINK-1572 (NORAD 46060). STARLINK-1572 can be tracked NOW for your location showing map with azimuth and elevation plus other details from your city location.

Track the satellite on the map from your city or location and see movement details for azimuth, elevation, latitude, longitude, range, height, and movement on the map or in text.







IsCatalogInMostPopularTable: catalog: 46060, numindb: 24
Update: records affected: 1



GetName: 46060 STARLINK-1572

Hit Count: updated at: Sat, 05 Dec 2020 04:55:53 GMT